Tallulah, LA

10:44 PM CDT on September 29, 2016 (GMT -0500)
Vicksburg Tallulah Regional

Weather History for KTVR - April, 2013

Change the Weather History Date:

Tuesday, April 16, 2013

  Actual Average Record
Temperature  
Mean Temperature 78 °F 65 °F  
Max Temperature 84 °F 76 °F 88 °F (2006)
Min Temperature 72 °F 53 °F 33 °F (2007)
Degree Days  
Heating Degree Days 0 3  
Month to date heating degree days 71 71  
Since 1 July heating degree days 2227 2312  
Cooling Degree Days 13 3  
Month to date cooling degree days 55 36  
Year to date cooling degree days 80 68  
Growing Degree Days 28 (Base 50)    
Moisture  
Dew Point 70 °F    
Average Humidity 79    
Maximum Humidity 93    
Minimum Humidity 65    
Precipitation  
Precipitation 0.00 in 0.18 in 1.74 in (1973)
Month to date precipitation 2.37 2.66  
Year to date precipitation 28.16 18.03  
Sea Level Pressure  
Sea Level Pressure 30.02 in    
Wind  
Wind Speed 10 mph (SSE)    
Max Wind Speed 18 mph    
Max Gust Speed 22 mph    
Visibility 10 miles    
Events      
T = Trace of Precipitation, MM = Missing Value Source: NWS Daily Summary

Daily Weather History Graph

Daily Weather History Graph

Search for Another Location

Airport or City:

Trip Planner

Search our weather history database for the weather conditions in past years. The results will help you decide how hot, cold, wet, or windy it might be!

Date:

Astronomy

Apr. 16, 2013 Rise Set
Actual Time 6:33 AM CDT 7:34 PM CDT
Civil Twilight 6:08 AM CDT 7:59 PM CDT
Nautical Twilight 5:38 AM CDT 8:29 PM CDT
Astronomical Twilight 5:07 AM CDT 9:00 PM CDT
Moon 11:00 AM CDT (4/16) 12:23 AM CDT (4/16)
Length of Visible Light 13h 51m
Length of Day
13h 01m
Waxing Crescent, 33% of the Moon is Illuminated
Apr 16
Waxing Crescent
Apr 18
First Quarter
Apr 25
Full
May 2
Last Quarter
May 9
New

Hourly Weather History & Observations

Time (CDT) Temp. Heat Index Dew Point Humidity Pressure Visibility Wind Dir Wind Speed Gust Speed Precip Events Conditions
12:25 AM 73.4 °F - 71.6 °F 94% 29.93 in 9.0 mi SSE 11.5 mph - N/A   Mostly Cloudy
12:53 AM 73.9 °F - 71.1 °F 91% 29.96 in 10.0 mi SSE 9.2 mph - N/A   Mostly Cloudy
1:27 AM 73.4 °F - 71.6 °F 94% 29.94 in 10.0 mi SSE 11.5 mph - N/A   Mostly Cloudy
1:42 AM 73.4 °F - 71.6 °F 94% 29.94 in 10.0 mi SSE 9.2 mph - N/A   Overcast
1:53 AM 73.9 °F - 71.1 °F 91% 29.95 in 10.0 mi SSE 13.8 mph - N/A   Overcast
2:53 AM 73.9 °F - 70.0 °F 87% 29.95 in 10.0 mi SSE 11.5 mph - N/A   Overcast
3:53 AM 73.9 °F - 70.0 °F 87% 29.96 in 10.0 mi SSE 9.2 mph - N/A   Overcast
4:53 AM 73.9 °F - 70.0 °F 87% 29.97 in 10.0 mi SSE 9.2 mph - N/A   Overcast
5:53 AM 73.0 °F - 70.0 °F 90% 29.99 in 10.0 mi SSE 10.4 mph - N/A   Overcast
6:01 AM 73.4 °F - 69.8 °F 88% 29.97 in 10.0 mi SSE 9.2 mph - N/A   Overcast
7:25 AM 73.4 °F - 69.8 °F 88% 30.00 in 10.0 mi SSE 8.1 mph - N/A   Mostly Cloudy
7:53 AM 73.9 °F - 71.1 °F 91% 30.02 in 10.0 mi SSE 6.9 mph - N/A   Clear
8:53 AM 77.0 °F - 71.1 °F 82% 30.04 in 10.0 mi SSE 13.8 mph 19.6 mph N/A   Mostly Cloudy
9:14 AM 77.0 °F - 71.6 °F 83% 30.03 in 10.0 mi SSE 10.4 mph 19.6 mph N/A   Mostly Cloudy
9:53 AM 78.1 °F - 71.1 °F 79% 30.06 in 10.0 mi South 12.7 mph - N/A   Mostly Cloudy
10:15 AM 80.6 °F 84.6 °F 71.6 °F 74% 30.05 in 10.0 mi South 11.5 mph 19.6 mph N/A   Overcast
10:53 AM 80.1 °F 83.2 °F 70.0 °F 71% 30.07 in 10.0 mi South 11.5 mph 17.3 mph N/A   Overcast
11:53 AM 80.1 °F 82.9 °F 69.1 °F 69% 30.08 in 10.0 mi South 9.2 mph - N/A   Overcast
12:53 PM 81.0 °F 84.1 °F 69.1 °F 67% 30.06 in 10.0 mi South 13.8 mph 18.4 mph N/A   Overcast
1:53 PM 82.0 °F 85.5 °F 69.1 °F 65% 30.05 in 10.0 mi South 9.2 mph - N/A   Overcast
2:53 PM 82.0 °F 85.9 °F 70.0 °F 67% 30.05 in 10.0 mi South 12.7 mph - N/A   Overcast
3:53 PM 82.0 °F 85.5 °F 69.1 °F 65% 30.04 in 10.0 mi SSE 12.7 mph - N/A   Overcast
4:53 PM 82.9 °F 87.0 °F 70.0 °F 65% 30.03 in 10.0 mi SSE 10.4 mph - N/A   Overcast
5:53 PM 81.0 °F 84.4 °F 70.0 °F 69% 30.04 in 10.0 mi South 6.9 mph - N/A   Overcast
6:53 PM 80.1 °F 82.9 °F 69.1 °F 69% 30.04 in 10.0 mi SSE 5.8 mph - N/A   Overcast
7:53 PM 77.0 °F - 69.1 °F 76% 30.04 in 10.0 mi SSE 5.8 mph - N/A   Scattered Clouds
8:53 PM 73.9 °F - 69.1 °F 85% 30.06 in 10.0 mi SE 5.8 mph - N/A   Clear
9:53 PM 73.9 °F - 69.1 °F 85% 30.07 in 10.0 mi SE 4.6 mph - N/A   Clear
10:53 PM 73.9 °F - 69.1 °F 85% 30.07 in 10.0 mi SSE 6.9 mph - N/A   Clear
11:53 PM 73.9 °F - 70.0 °F 87% 30.07 in 10.0 mi SSE 9.2 mph - N/A   Clear